Time,TemperatureF,DewpointF,PressureIn,WindDirection,WindDirectionDegrees,WindSpeedMPH,WindSpeedGustMPH,Humidity,HourlyPrecipIn,Conditions,Clouds,dailyrainin,SolarRadiationWatts/m^2,SoftwareType,DateUTC
2013-03-27 00:12:00,41.1,35.0,30.26,North,5,0.0,0.0,79,0.00,,,0.00,0,weatherlink.com 1.10,2013-03-27 04:12:00,
2013-03-27 00:28:00,40.6,35.0,30.26,North,5,0.0,0.0,80,0.00,,,0.00,0,weatherlink.com 1.10,2013-03-27 04:28:00,
2013-03-27 00:43:00,40.3,35.0,30.26,North,5,0.0,2.0,82,0.00,,,0.00,0,weatherlink.com 1.10,2013-03-27 04:43:00,
2013-03-27 00:58:00,40.5,35.0,30.26,North,360,1.0,3.0,81,0.00,,,0.00,0,weatherlink.com 1.10,2013-03-27 04:58:00,
2013-03-27 01:13:00,40.9,36.0,30.26,NNW,346,0.0,4.0,81,0.00,,,0.00,0,weatherlink.com 1.10,2013-03-27 05:13:00,
2013-03-27 01:28:00,41.2,36.0,30.25,North,9,2.0,3.0,80,0.00,,,0.00,0,weatherlink.com 1.10,2013-03-27 05:28:00,
2013-03-27 01:43:00,41.3,36.0,30.25,North,351,0.0,4.0,80,0.00,,,0.00,0,weatherlink.com 1.10,2013-03-27 05:43:00,
2013-03-27 01:58:00,41.4,36.0,30.25,North,350,2.0,5.0,80,0.00,,,0.00,0,weatherlink.com 1.10,2013-03-27 05:58:00,
2013-03-27 02:13:00,41.5,36.0,30.25,North,355,0.0,4.0,80,0.00,,,0.00,0,weatherlink.com 1.10,2013-03-27 06:13:00,
2013-03-27 02:28:00,41.4,36.0,30.24,North,355,0.0,4.0,80,0.00,,,0.00,0,weatherlink.com 1.10,2013-03-27 06:28:00,
2013-03-27 02:43:00,41.3,35.0,30.24,NNW,348,4.0,6.0,79,0.00,,,0.00,0,weatherlink.com 1.10,2013-03-27 06:43:00,
2013-03-27 02:59:00,41.5,35.0,30.25,North,5,1.0,6.0,79,0.00,,,0.00,0,weatherlink.com 1.10,2013-03-27 06:59:00,
2013-03-27 03:14:00,41.6,35.0,30.25,NNW,344,4.0,5.0,78,0.00,,,0.00,0,weatherlink.com 1.10,2013-03-27 07:14:00,
2013-03-27 03:29:00,41.7,35.0,30.24,North,5,4.0,6.0,77,0.00,,,0.00,0,weatherlink.com 1.10,2013-03-27 07:29:00,
2013-03-27 03:44:00,41.8,34.0,30.24,North,10,3.0,6.0,75,0.00,,,0.00,0,weatherlink.com 1.10,2013-03-27 07:44:00,
2013-03-27 03:59:00,41.9,34.0,30.24,North,355,4.0,8.0,74,0.00,,,0.00,0,weatherlink.com 1.10,2013-03-27 07:59:00,
2013-03-27 04:14:00,41.9,34.0,30.24,NNE,17,2.0,7.0,74,0.00,,,0.00,0,weatherlink.com 1.10,2013-03-27 08:14:00,
2013-03-27 04:29:00,41.6,34.0,30.25,North,355,5.0,7.0,73,0.00,,,0.00,0,weatherlink.com 1.10,2013-03-27 08:29:00,
2013-03-27 04:44:00,41.3,34.0,30.25,NNW,341,1.0,6.0,74,0.00,,,0.00,0,weatherlink.com 1.10,2013-03-27 08:44:00,
2013-03-27 04:59:00,40.9,33.0,30.25,North,360,2.0,7.0,74,0.00,,,0.00,0,weatherlink.com 1.10,2013-03-27 08:59:00,
2013-03-27 05:15:00,40.5,33.0,30.25,North,11,3.0,6.0,75,0.00,,,0.00,0,weatherlink.com 1.10,2013-03-27 09:15:00,
2013-03-27 05:30:00,40.3,33.0,30.25,North,5,3.0,5.0,75,0.00,,,0.00,0,weatherlink.com 1.10,2013-03-27 09:30:00,
2013-03-27 05:46:00,40.0,33.0,30.25,North,355,4.0,6.0,76,0.00,,,0.00,0,weatherlink.com 1.10,2013-03-27 09:46:00,
2013-03-27 06:00:00,39.9,33.0,30.25,North,5,3.0,7.0,75,0.00,,,0.00,0,weatherlink.com 1.10,2013-03-27 10:00:00,
2013-03-27 06:15:00,39.7,33.0,30.25,NNW,348,4.0,6.0,76,0.00,,,0.00,0,weatherlink.com 1.10,2013-03-27 10:15:00,
2013-03-27 06:30:00,39.6,33.0,30.25,NNE,21,4.0,7.0,76,0.00,,,0.00,0,weatherlink.com 1.10,2013-03-27 10:30:00,
2013-03-27 06:45:00,39.5,32.0,30.26,North,360,4.0,7.0,75,0.00,,,0.00,0,weatherlink.com 1.10,2013-03-27 10:45:00,
2013-03-27 07:00:00,39.4,32.0,30.27,North,355,3.0,6.0,75,0.00,,,0.00,0,weatherlink.com 1.10,2013-03-27 11:00:00,
2013-03-27 07:17:00,39.3,32.0,30.28,North,355,4.0,7.0,74,0.00,,,0.00,0,weatherlink.com 1.10,2013-03-27 11:17:00,
2013-03-27 07:31:00,39.5,32.0,30.28,North,5,4.0,8.0,73,0.00,,,0.00,11,weatherlink.com 1.10,2013-03-27 11:31:00,
2013-03-27 07:46:00,40.0,32.0,30.29,North,355,4.0,9.0,72,0.00,,,0.00,19,weatherlink.com 1.10,2013-03-27 11:46:00,
2013-03-27 08:16:00,41.1,32.0,30.30,North,355,5.0,10.0,71,0.00,,,0.00,40,weatherlink.com 1.10,2013-03-27 12:16:00,
2013-03-27 08:31:00,42.3,33.0,30.30,NNW,342,2.0,8.0,70,0.00,,,0.00,44,weatherlink.com 1.10,2013-03-27 12:31:00,
2013-03-27 08:46:00,45.3,34.0,30.30,NNW,341,5.0,11.0,66,0.00,,,0.00,313,weatherlink.com 1.10,2013-03-27 12:46:00,
2013-03-27 09:01:00,47.3,34.0,30.31,North,5,9.0,12.0,60,0.00,,,0.00,378,weatherlink.com 1.10,2013-03-27 13:01:00,
2013-03-27 09:17:00,49.0,35.0,30.31,NW,316,1.0,10.0,59,0.00,,,0.00,439,weatherlink.com 1.10,2013-03-27 13:17:00,
2013-03-27 09:32:00,51.4,36.0,30.32,NW,313,4.0,10.0,55,0.00,,,0.00,501,weatherlink.com 1.10,2013-03-27 13:32:00,
2013-03-27 09:47:00,53.6,37.0,30.32,North,355,9.0,10.0,53,0.00,,,0.00,554,weatherlink.com 1.10,2013-03-27 13:47:00,
2013-03-27 10:02:00,55.4,36.0,30.32,NNW,343,9.0,12.0,49,0.00,,,0.00,612,weatherlink.com 1.10,2013-03-27 14:02:00,
2013-03-27 10:17:00,57.1,36.0,30.32,NNW,348,8.0,11.0,45,0.00,,,0.00,657,weatherlink.com 1.10,2013-03-27 14:17:00,
2013-03-27 10:32:00,58.2,37.0,30.33,NW,325,6.0,12.0,45,0.00,,,0.00,708,weatherlink.com 1.10,2013-03-27 14:32:00,
2013-03-27 10:49:00,58.7,37.0,30.33,North,10,7.0,13.0,44,0.00,,,0.00,758,weatherlink.com 1.10,2013-03-27 14:49:00,
2013-03-27 11:03:00,60.0,35.0,30.32,North,355,2.0,9.0,40,0.00,,,0.00,798,weatherlink.com 1.10,2013-03-27 15:03:00,
2013-03-27 11:18:00,61.2,36.0,30.32,North,5,6.0,12.0,39,0.00,,,0.00,835,weatherlink.com 1.10,2013-03-27 15:18:00,
2013-03-27 11:33:00,61.2,36.0,30.32,North,360,4.0,11.0,39,0.00,,,0.00,867,weatherlink.com 1.10,2013-03-27 15:33:00,
2013-03-27 11:48:00,62.0,34.0,30.32,North,9,1.0,13.0,35,0.00,,,0.00,893,weatherlink.com 1.10,2013-03-27 15:48:00,
2013-03-27 12:04:00,62.1,37.0,30.32,North,5,5.0,9.0,39,0.00,,,0.00,918,weatherlink.com 1.10,2013-03-27 16:04:00,
2013-03-27 12:18:00,63.5,37.0,30.32,North,355,2.0,11.0,37,0.00,,,0.00,937,weatherlink.com 1.10,2013-03-27 16:18:00,
2013-03-27 12:34:00,63.4,34.0,30.31,NNW,344,5.0,12.0,33,0.00,,,0.00,956,weatherlink.com 1.10,2013-03-27 16:34:00,
2013-03-27 12:49:00,63.8,34.0,30.30,SE,135,0.0,13.0,33,0.00,,,0.00,963,weatherlink.com 1.10,2013-03-27 16:49:00,
2013-03-27 13:04:00,62.4,33.0,30.30,South,174,1.0,8.0,33,0.00,,,0.00,970,weatherlink.com 1.10,2013-03-27 17:04:00,
2013-03-27 13:19:00,64.4,34.0,30.29,North,355,5.0,13.0,32,0.00,,,0.00,976,weatherlink.com 1.10,2013-03-27 17:19:00,
2013-03-27 13:34:00,64.9,33.0,30.29,North,355,5.0,11.0,31,0.00,,,0.00,970,weatherlink.com 1.10,2013-03-27 17:34:00,
2013-03-27 13:49:00,64.5,33.0,30.28,NNW,344,2.0,11.0,31,0.00,,,0.00,967,weatherlink.com 1.10,2013-03-27 17:49:00,
2013-03-27 14:04:00,65.4,35.0,30.27,NNE,30,3.0,7.0,32,0.00,,,0.00,958,weatherlink.com 1.10,2013-03-27 18:04:00,
2013-03-27 14:19:00,65.7,35.0,30.27,North,355,7.0,13.0,32,0.00,,,0.00,942,weatherlink.com 1.10,2013-03-27 18:19:00,
2013-03-27 14:34:00,66.2,33.0,30.26,North,355,5.0,9.0,29,0.00,,,0.00,930,weatherlink.com 1.10,2013-03-27 18:34:00,
2013-03-27 14:50:00,65.9,35.0,30.25,SW,236,0.0,9.0,32,0.00,,,0.00,902,weatherlink.com 1.10,2013-03-27 18:50:00,
2013-03-27 15:06:00,66.1,33.0,30.25,NW,306,0.0,8.0,29,0.00,,,0.00,872,weatherlink.com 1.10,2013-03-27 19:06:00,
2013-03-27 15:21:00,65.6,34.0,30.24,North,355,3.0,8.0,31,0.00,,,0.00,844,weatherlink.com 1.10,2013-03-27 19:21:00,
2013-03-27 15:36:00,66.1,34.0,30.24,NNW,329,4.0,8.0,30,0.00,,,0.00,807,weatherlink.com 1.10,2013-03-27 19:36:00,
2013-03-27 15:50:00,67.3,35.0,30.23,NNW,346,4.0,11.0,30,0.00,,,0.00,775,weatherlink.com 1.10,2013-03-27 19:50:00,
2013-03-27 16:05:00,67.3,33.0,30.23,NNE,15,2.0,11.0,28,0.00,,,0.00,729,weatherlink.com 1.10,2013-03-27 20:05:00,
2013-03-27 16:20:00,67.7,34.0,30.23,North,350,6.0,9.0,29,0.00,,,0.00,687,weatherlink.com 1.10,2013-03-27 20:20:00,
2013-03-27 16:36:00,67.6,38.0,30.22,ESE,117,1.0,8.0,34,0.00,,,0.00,473,weatherlink.com 1.10,2013-03-27 20:36:00,
2013-03-27 16:51:00,64.2,40.0,30.22,ESE,102,4.0,8.0,41,0.00,,,0.00,53,weatherlink.com 1.10,2013-03-27 20:51:00,
2013-03-27 17:06:00,63.4,40.0,30.22,East,89,3.0,9.0,42,0.00,,,0.00,51,weatherlink.com 1.10,2013-03-27 21:06:00,
2013-03-27 17:21:00,62.3,41.0,30.23,North,360,4.0,7.0,45,0.00,,,0.00,47,weatherlink.com 1.10,2013-03-27 21:21:00,
2013-03-27 17:36:00,62.9,41.0,30.23,SE,128,1.0,8.0,45,0.00,,,0.00,46,weatherlink.com 1.10,2013-03-27 21:36:00,
2013-03-27 17:51:00,62.3,42.0,30.24,NNE,30,5.0,9.0,48,0.00,,,0.00,142,weatherlink.com 1.10,2013-03-27 21:51:00,
2013-03-27 18:06:00,61.5,41.0,30.24,North,355,4.0,7.0,48,0.00,,,0.00,211,weatherlink.com 1.10,2013-03-27 22:06:00,
2013-03-27 18:21:00,60.5,42.0,30.24,North,11,3.0,7.0,50,0.00,,,0.00,37,weatherlink.com 1.10,2013-03-27 22:21:00,
2013-03-27 18:36:00,59.6,42.0,30.25,ESE,115,1.0,7.0,52,0.00,,,0.00,90,weatherlink.com 1.10,2013-03-27 22:36:00,
2013-03-27 18:51:00,58.7,41.0,30.25,ENE,59,3.0,5.0,53,0.00,,,0.00,25,weatherlink.com 1.10,2013-03-27 22:51:00,
2013-03-27 19:06:00,57.7,42.0,30.25,NNE,19,1.0,4.0,57,0.00,,,0.00,18,weatherlink.com 1.10,2013-03-27 23:06:00,
2013-03-27 19:22:00,56.7,42.0,30.25,ENE,78,1.0,3.0,58,0.00,,,0.00,11,weatherlink.com 1.10,2013-03-27 23:22:00,
2013-03-27 19:37:00,55.8,42.0,30.25,East,84,2.0,2.0,61,0.00,,,0.00,0,weatherlink.com 1.10,2013-03-27 23:37:00,
2013-03-27 19:52:00,54.7,43.0,30.26,East,84,0.0,1.0,64,0.00,,,0.00,0,weatherlink.com 1.10,2013-03-27 23:52:00,
2013-03-27 20:07:00,53.6,43.0,30.26,East,84,0.0,0.0,67,0.00,,,0.00,0,weatherlink.com 1.10,2013-03-28 00:07:00,
2013-03-27 20:22:00,52.1,42.0,30.26,East,84,0.0,0.0,69,0.00,,,0.00,0,weatherlink.com 1.10,2013-03-28 00:22:00,
2013-03-27 20:38:00,50.6,42.0,30.26,East,84,0.0,0.0,73,0.00,,,0.00,0,weatherlink.com 1.10,2013-03-28 00:38:00,
2013-03-27 20:52:00,49.6,42.0,30.26,East,84,0.0,0.0,75,0.00,,,0.00,0,weatherlink.com 1.10,2013-03-28 00:52:00,
2013-03-27 21:07:00,48.6,42.0,30.27,East,84,0.0,0.0,77,0.00,,,0.00,0,weatherlink.com 1.10,2013-03-28 01:07:00,
2013-03-27 21:22:00,47.6,41.0,30.27,East,84,0.0,0.0,79,0.00,,,0.00,0,weatherlink.com 1.10,2013-03-28 01:22:00,
2013-03-27 21:38:00,46.9,41.0,30.27,East,84,0.0,0.0,81,0.00,,,0.00,0,weatherlink.com 1.10,2013-03-28 01:38:00,
2013-03-27 21:53:00,46.2,41.0,30.28,East,84,0.0,0.0,83,0.00,,,0.00,0,weatherlink.com 1.10,2013-03-28 01:53:00,
2013-03-27 22:08:00,45.6,41.0,30.28,East,84,0.0,0.0,83,0.00,,,0.00,0,weatherlink.com 1.10,2013-03-28 02:08:00,
2013-03-27 22:23:00,45.2,41.0,30.28,East,84,0.0,0.0,84,0.00,,,0.00,0,weatherlink.com 1.10,2013-03-28 02:23:00,
2013-03-27 22:38:00,44.7,41.0,30.28,East,84,0.0,0.0,86,0.00,,,0.00,0,weatherlink.com 1.10,2013-03-28 02:38:00,
2013-03-27 22:53:00,44.2,41.0,30.29,East,84,0.0,0.0,88,0.00,,,0.00,0,weatherlink.com 1.10,2013-03-28 02:53:00,
2013-03-27 23:08:00,43.8,41.0,30.29,East,84,0.0,0.0,89,0.00,,,0.00,0,weatherlink.com 1.10,2013-03-28 03:08:00,
2013-03-27 23:23:00,43.4,41.0,30.29,East,84,0.0,0.0,90,0.00,,,0.00,0,weatherlink.com 1.10,2013-03-28 03:23:00,
2013-03-27 23:38:00,43.2,41.0,30.29,East,84,0.0,0.0,90,0.00,,,0.00,0,weatherlink.com 1.10,2013-03-28 03:38:00,
2013-03-27 23:53:00,42.7,40.0,30.29,East,84,0.0,0.0,90,0.00,,,0.00,0,weatherlink.com 1.10,2013-03-28 03:53:00,